Find Mohammed VI-A

NORAD ID: 43005 Int'l Des: 2017-070 Owner: RMAF Country: MA operational
LEOCIRCULARRETROGRADESSO

Live Position

Loading 3D Globe...

About Mohammed VI-A

Description loading...

Upcoming Passes

Passes for default location (London). Set your location on the main map for personalized predictions.

Altitude History

Loading altitude history...

Two-Line Element Set

1 43005U 17070A 26111.84958366 .00000722 00000-0 10949-3 0 9994
2 43005 97.9574 184.9489 0001081 91.6813 268.4521 14.77083083455661
Epoch: Apr 21, 2026 • Age: 6 hours

Current Status

Altitude 667.6 km
Velocity 7.52 km/s
Sub-Earth Point -82.01°S, 35.74°E
Launch Date Nov 8, 2017
Age 8.4 years
Type other

Technical Details

Classification Payload
Mass 1110.00 kg
Dry Mass 900.00 kg
Total Mass 1110.00 kg
Length 4.00 m
Diameter 2.00 m
Span 8.00 m
Shape Hex-cyl+3 panels
Manufacturer ADST
Bus Type Astrosat-1000
Phase Status In Orbit
Owner/State RMAF/MA

Most Searched